Crystal River, FL

12:46 AM EST on December 11, 2019 (GMT -0500)
Crystal River

Weather History for KCGC - October, 2019

Change the Weather History Date:

Saturday, October 19, 2019

  Actual Average (KBKV) Record (KBKV)
Temperature  
Mean Temperature 74 °F -  
Max Temperature 78 °F 81 °F 91 °F (2006)
Min Temperature 69 °F 57 °F 44 °F (1996)
Cooling Degree Days 8    
Growing Degree Days 24 (Base 50)    
Moisture  
Dew Point 72 °F    
Average Humidity 92    
Maximum Humidity 100    
Minimum Humidity 83    
Precipitation  
Precipitation 1.60 in - - ()
Sea Level Pressure  
Sea Level Pressure 29.79 in    
Wind  
Wind Speed 6 mph (SSE)    
Max Wind Speed 10 mph    
Max Gust Speed 20 mph    
Visibility 8 miles    
Events Rain    
Averages and records for this station are not official NWS values.
T = Trace of Precipitation, MM = Missing Value Source: NWS Daily Summary

Daily Weather History Graph

Daily Weather History Graph

Search for Another Location

Airport or City:

Astronomy

Oct. 19, 2019 Rise Set
Actual Time 7:33 AM EDT 6:56 PM EDT
Civil Twilight 7:09 AM EDT 7:20 PM EDT
Nautical Twilight 6:42 AM EDT 7:47 PM EDT
Astronomical Twilight 6:14 AM EDT 8:15 PM EDT
Moon 11:23 PM EDT (10/19) 12:45 PM EDT (10/19)
Length of Visible Light 12h 10m
Length of Day
11h 22m
Waning Gibbous, 70% of the Moon is Illuminated
Oct 19
Waning Gibbous
Oct 21
Last Quarter
Oct 27
New
Nov 4
First Quarter
Nov 12
Full

Hourly Weather History & Observations

Time (EDT) Temp. Dew Point Humidity Pressure Visibility Wind Dir Wind Speed Gust Speed Precip Events Conditions
12:15 AM 69.8 °F 69.8 °F 100% 29.87 in 3.0 mi East 8.1 mph - 0.16 in Rain Heavy Rain
12:35 AM 69.8 °F 69.8 °F 100% 29.86 in 10.0 mi East 9.2 mph - 0.19 in Rain Rain
12:55 AM 69.8 °F 69.8 °F 100% 29.86 in 10.0 mi East 4.6 mph - 0.21 in Rain Light Rain
1:15 AM 69.8 °F 69.8 °F 100% 29.85 in 10.0 mi East 5.8 mph - 0.01 in Rain Light Rain
1:35 AM 69.8 °F 69.8 °F 100% 29.83 in 10.0 mi East 8.1 mph - 0.02 in Rain Light Rain
1:55 AM 71.6 °F 69.8 °F 94% 29.83 in 10.0 mi East 6.9 mph - 0.04 in Rain Light Rain
2:15 AM 71.6 °F 69.8 °F 94% 29.84 in 7.0 mi East 5.8 mph - 0.04 in Rain Rain
2:35 AM 71.6 °F 69.8 °F 94% 29.83 in 10.0 mi East 5.8 mph - 0.07 in Rain Rain
2:55 AM 71.6 °F 71.6 °F 100% 29.81 in 10.0 mi East 6.9 mph - 0.10 in Rain Light Rain
3:15 AM 71.6 °F 71.6 °F 100% 29.82 in 10.0 mi ESE 4.6 mph - N/A Rain Light Rain
3:35 AM 71.6 °F 71.6 °F 100% 29.82 in 10.0 mi ESE 4.6 mph - N/A Rain Light Rain
4:35 AM 71.6 °F 71.6 °F 100% 29.80 in 10.0 mi ENE 3.5 mph - 0.02 in Rain Light Rain
4:55 AM 71.6 °F 71.6 °F 100% 29.81 in 10.0 mi Calm Calm - 0.02 in Rain Light Rain
5:15 AM 71.6 °F 71.6 °F 100% 29.81 in 3.0 mi Calm Calm - 0.05 in Rain Rain
5:35 AM 71.6 °F 71.6 °F 100% 29.81 in 5.0 mi ENE 3.5 mph - 0.11 in Rain Rain
5:55 AM 71.6 °F 71.6 °F 100% 29.82 in 5.0 mi Calm Calm - 0.17 in Rain Rain
6:15 AM 71.6 °F 71.6 °F 100% 29.81 in 5.0 mi East 6.9 mph - 0.07 in Rain Rain
6:35 AM 71.6 °F 71.6 °F 100% 29.81 in 5.0 mi ESE 6.9 mph - 0.15 in Rain Rain
6:55 AM 71.6 °F 69.8 °F 94% 29.82 in 4.0 mi ESE 4.6 mph - 0.24 in Rain Rain
7:15 AM 71.6 °F 69.8 °F 94% 29.80 in 7.0 mi ESE 8.1 mph - 0.04 in Rain Light Rain
7:35 AM 71.6 °F 69.8 °F 94% 29.79 in 7.0 mi ESE 9.2 mph 17.3 mph 0.07 in Rain Light Rain
7:55 AM 71.6 °F 69.8 °F 94% 29.78 in 10.0 mi ESE 9.2 mph 17.3 mph 0.07 in   Overcast
8:15 AM 71.6 °F 69.8 °F 94% 29.78 in 10.0 mi ESE 8.1 mph - N/A   Overcast
8:35 AM 71.6 °F 71.6 °F 100% 29.80 in 10.0 mi ESE 8.1 mph - N/A   Overcast
8:55 AM 73.4 °F 71.6 °F 94% 29.83 in 10.0 mi SSE 3.5 mph - N/A   Overcast
9:15 AM 73.4 °F 71.6 °F 94% 29.80 in 10.0 mi ESE 9.2 mph - N/A   Overcast
9:35 AM 73.4 °F 71.6 °F 94% 29.81 in 10.0 mi ESE 4.6 mph - N/A   Overcast
9:55 AM 75.2 °F 71.6 °F 89% 29.81 in 10.0 mi SE 6.9 mph - N/A   Overcast
10:15 AM 75.2 °F 71.6 °F 89% 29.82 in 10.0 mi SE 6.9 mph - N/A   Overcast
10:35 AM 75.2 °F 71.6 °F 89% 29.80 in 10.0 mi SE 8.1 mph 16.1 mph N/A   Overcast
10:55 AM 75.2 °F 71.6 °F 89% 29.80 in 10.0 mi SSE 9.2 mph - N/A   Overcast
11:15 AM 75.2 °F 71.6 °F 89% 29.80 in 10.0 mi SE 8.1 mph 19.6 mph N/A   Light Drizzle
11:35 AM 77.0 °F 71.6 °F 83% 29.79 in 10.0 mi SE 10.4 mph 16.1 mph N/A   Overcast
12:15 PM 77.0 °F 71.6 °F 83% 29.79 in 7.0 mi SSE 8.1 mph 18.4 mph 0.01 in Rain Rain
12:35 PM 77.0 °F 73.4 °F 89% 29.78 in 7.0 mi SE 6.9 mph - 0.02 in Rain Light Rain
12:55 PM 77.0 °F 73.4 °F 89% 29.77 in 10.0 mi SSE 6.9 mph - 0.02 in   Overcast
1:15 PM 77.0 °F 71.6 °F 83% 29.76 in 7.0 mi SE 6.9 mph - 0.01 in Rain Rain
1:35 PM 78.8 °F 73.4 °F 83% 29.75 in 10.0 mi South 6.9 mph - 0.01 in   Overcast
1:55 PM 78.8 °F 73.4 °F 83% 29.74 in 7.0 mi SSE 10.4 mph 19.6 mph 0.01 in Rain Light Rain
2:35 PM 77.0 °F 73.4 °F 89% 29.73 in 2.5 mi South 3.5 mph - 0.09 in Rain Heavy Rain
2:55 PM 77.0 °F 75.2 °F 94% 29.73 in 7.0 mi South 5.8 mph - 0.11 in Rain Rain
3:15 PM 78.8 °F 75.2 °F 89% 29.72 in 5.0 mi South 8.1 mph - 0.01 in Rain Heavy Rain
3:55 PM 78.8 °F 77.0 °F 94% 29.71 in 10.0 mi South 3.5 mph - 0.10 in   Overcast
4:15 PM 78.8 °F 77.0 °F 94% 29.70 in 1.8 mi South 3.5 mph - 0.13 in Rain Heavy Rain
4:55 PM 77.0 °F 75.2 °F 94% 29.71 in 5.0 mi SW 4.6 mph - 0.41 in Rain Light Rain
5:15 PM 78.8 °F 75.2 °F 89% 29.71 in 7.0 mi South 8.1 mph - 0.01 in   Light Drizzle
5:35 PM 78.8 °F 75.2 °F 89% 29.71 in 10.0 mi SSW 5.8 mph 17.3 mph 0.01 in   Mostly Cloudy
5:55 PM 78.8 °F 75.2 °F 89% 29.72 in 10.0 mi SSW 4.6 mph - 0.02 in   Mostly Cloudy
6:15 PM 78.8 °F 73.4 °F 83% 29.72 in 10.0 mi South 3.5 mph - N/A   Mostly Cloudy
6:35 PM 78.8 °F 73.4 °F 83% 29.72 in 10.0 mi South 4.6 mph - N/A   Mostly Cloudy
6:55 PM 78.8 °F 73.4 °F 83% 29.73 in 10.0 mi South 4.6 mph - N/A   Mostly Cloudy
7:15 PM 78.8 °F 73.4 °F 83% 29.73 in 10.0 mi SSW 3.5 mph - N/A   Scattered Clouds
7:35 PM 78.8 °F 75.2 °F 89% 29.74 in 10.0 mi Calm Calm - N/A   Scattered Clouds
7:55 PM 78.8 °F 75.2 °F 89% 29.75 in 10.0 mi SW 3.5 mph - N/A Rain Light Rain
8:15 PM 77.0 °F 75.2 °F 94% 29.76 in 10.0 mi SW 4.6 mph - N/A   Mostly Cloudy
8:35 PM 77.0 °F 75.2 °F 94% 29.76 in 10.0 mi SSW 3.5 mph - N/A   Mostly Cloudy
8:55 PM 77.0 °F 73.4 °F 89% 29.78 in 4.0 mi WSW 4.6 mph 17.3 mph 0.08 in Rain Light Rain
9:15 PM 77.0 °F 73.4 °F 89% 29.78 in 10.0 mi WSW 3.5 mph - N/A   Mostly Cloudy
9:35 PM 77.0 °F 73.4 °F 89% 29.79 in 10.0 mi SW 3.5 mph - N/A   Scattered Clouds
9:55 PM 77.0 °F 73.4 °F 89% 29.80 in 10.0 mi SW 3.5 mph - N/A   Mostly Cloudy
10:15 PM 77.0 °F 73.4 °F 89% 29.80 in 10.0 mi Calm Calm - N/A   Overcast
10:35 PM 77.0 °F 73.4 °F 89% 29.80 in 10.0 mi WSW 4.6 mph - N/A   Overcast
11:15 PM 77.0 °F 71.6 °F 83% 29.81 in 10.0 mi WSW 3.5 mph - N/A   Clear
11:35 PM 77.0 °F 71.6 °F 83% 29.81 in 10.0 mi Calm Calm - N/A   Scattered Clouds
11:55 PM 77.0 °F 71.6 °F 83% 29.81 in 10.0 mi WSW 4.6 mph - N/A   Clear